Wind_Speed
28 29 31 35 35 37 39 41 45 48 47 47 47 56 53 49 51 57 61 60 67 57 54 56 59 63 60 59 59 63 60 59 59 60 62 63 63 66 69 73 76 78 81 84
31 31 33 38 37 39 41 46 50 56 51 54 54 54 59 55 51 52 59 60 64 56 50 49 50 53 52 52 50 51 50 49 51 53 56 59 62 68 72 76 80 83 87 89
35 33 38 40 43 42 46 46 52 59 60 59 58 56 59 57 57 46 48 54 56 48 43 40 38 40 41 41 42 39 42 45 50 57 60 62 67 73 77 80 82 85 87 90
38 37 42 44 45 45 47 51 55 61 64 60 56 46 46 47 48 44 37 44 45 42 34 35 34 36 36 37 34 38 43 49 55 61 65 69 75 79 79 81 82 86 90 94
38 43 44 49 49 48 53 54 58 62 60 54 54 42 39 41 36 33 30 33 42 41 39 37 35 36 36 37 41 45 50 54 59 65 71 75 77 82 84 86 88 93 97 101
44 44 46 50 51 50 53 59 60 59 53 49 47 37 36 37 31 22 19 44 47 42 44 35 38 38 43 46 51 52 54 59 65 71 72 75 77 83 88 91 96 101 105 108
47 48 45 50 56 57 55 60 60 52 51 46 39 37 32 38 30 23 33 38 41 37 35 39 43 45 49 54 56 58 63 66 71 73 72 75 81 87 90 93 98 102 104 98
51 51 50 48 53 55 59 60 54 48 45 43 37 32 33 36 34 34 37 40 44 42 41 42 45 49 52 54 59 65 69 75 78 78 78 82 88 93 95 99 102 100 95 86
52 55 52 51 55 57 60 61 52 46 43 39 43 32 30 32 33 39 40 38 40 46 48 48 50 54 57 62 67 72 76 80 82 84 87 90 95 99 100 99 94 87 80 75
51 52 57 53 52 59 59 56 50 45 39 36 43 35 33 33 34 36 38 42 42 46 50 51 55 59 63 68 73 79 82 85 87 90 93 97 101 98 91 84 77 74 69 68
54 55 56 56 50 55 57 51 47 44 43 36 36 41 38 39 37 36 36 39 42 49 49 57 60 63 67 72 77 81 85 87 92 96 100 101 94 84 76 70 67 64 63 62
57 56 56 57 56 54 53 48 45 41 42 42 41 40 35 31 36 36 37 40 48 50 55 60 66 68 72 78 81 85 89 94 97 101 100 92 76 66 61 58 56 59 54 44
58 57 56 60 57 52 49 47 46 43 39 41 42 43 35 37 38 37 39 44 51 54 58 63 68 71 75 81 86 90 94 95 96 95 85 74 65 57 53 51 53 45 38 32
54 58 61 60 59 53 47 43 45 43 42 43 44 47 41 42 41 42 45 49 54 57 60 66 71 75 83 87 92 95 98 99 93 81 70 64 57 52 50 47 38 35 32 25
58 63 63 60 55 52 43 42 41 40 42 42 44 47 45 45 46 49 52 55 58 61 67 71 76 83 87 93 96 98 100 93 81 67 55 49 46 43 38 32 32 31 28 24
59 58 56 55 50 46 42 42 42 43 41 42 42 42 49 50 50 51 53 57 63 70 74 79 84 88 93 96 99 101 90 78 65 55 47 50 48 42 35 33 29 28 29 28
50 49 49 49 47 46 43 42 46 44 41 44 49 49 49 50 52 56 59 67 73 77 82 86 90 93 97 100 98 84 74 63 56 49 48 50 48 45 41 37 34 32 31 29
44 43 44 42 46 49 45 47 49 47 47 48 52 53 56 59 60 60 65 71 79 84 87 90 95 99 101 94 78 71 61 56 50 49 51 53 52 47 43 39 37 34 30 25
44 44 45 44 44 48 47 47 49 51 52 55 58 60 63 68 68 67 72 80 86 90 93 97 98 93 80 72 67 59 54 50 50 54 54 49 44 39 36 33 31 28 23 16
43 49 48 49 48 49 53 54 56 57 57 60 62 67 70 74 81 84 86 89 94 96 93 90 80 72 68 63 58 54 52 54 55 49 42 38 35 30 26 22 18 14 8 5
48 51 54 54 51 53 55 60 63 64 64 64 65 70 77 82 82 86 91 86 82 79 76 70 66 65 60 57 53 55 56 51 45 40 36 32 29 24 18 11 6 5 7 5
50 52 57 56 58 59 61 64 68 66 67 71 76 80 83 85 81 71 74 70 64 63 61 61 60 56 54 54 56 52 45 40 37 34 30 25 19 12 7 7 15 16 14 17
50 51 50 54 56 59 62 65 69 75 78 81 83 81 80 71 73 74 67 60 59 57 56 54 52 50 53 53 47 42 38 33 28 25 19 13 7 3 12 21 23 24 29 37
54 58 59 59 61 65 69 72 74 71 75 75 66 66 62 60 60 56 51 52 52 52 48 47 48 52 48 42 38 33 28 23 17 14 8 2 7 17 27 29 33 40 41 39
59 63 62 64 66 63 62 62 62 64 61 55 57 53 51 51 46 46 46 46 46 43 42 45 47 42 38 35 31 26 20 14 8 6 9 16 26 34 36 45 47 43 39 36
54 54 53 59 62 59 58 60 59 53 50 52 46 42 43 38 40 40 40 39 37 38 41 40 37 35 32 27 21 16 13 12 15 20 27 36 41 47 53 49 44 40 38 36
Wind_Direction
303 309 307 305 307 301 299 300 301 299 299 299 290 288 285 284 286 284 284 282 282 282 280 279 279 279 279 279 280 279 281 283 283 285 285 286 287 287 286 284 284 284 283 282
300 307 303 309 310 303 299 303 305 302 303 301 296 291 289 287 281 284 284 287 286 288 285 281 280 280 279 281 283 283 289 290 290 288 287 287 289 290 289 289 288 288 287 286
296 301 300 306 307 306 301 308 306 304 305 302 298 296 291 290 290 283 284 286 287 287 292 291 286 283 283 282 285 295 293 292 290 290 291 293 294 292 292 294 292 290 290 290
293 297 299 301 306 302 304 308 306 306 307 304 298 295 291 286 288 290 298 295 293 296 298 292 290 286 288 287 291 292 293 293 293 296 298 299 295 296 296 294 294 293 292 291
294 299 300 301 303 302 307 309 309 309 307 305 297 298 283 282 287 292 290 297 294 299 302 298 294 292 293 296 289 289 293 298 299 297 299 300 301 298 297 296 298 298 296 294
294 295 301 300 302 304 308 311 311 311 308 302 297 292 287 286 293 279 264 280 283 294 298 298 295 295 297 297 299 300 299 300 300 301 301 299 301 299 298 301 300 299 296 295
294 297 298 302 306 306 310 312 315 313 308 306 294 291 286 286 289 276 270 278 289 287 279 282 293 298 300 301 302 302 301 300 300 300 300 300 298 298 298 298 296 297 298 300
295 297 297 299 300 304 310 314 315 310 311 305 294 281 276 284 286 286 284 287 285 287 285 285 291 298 300 301 300 300 303 306 305 303 303 301 301 300 301 302 303 301 301 302
292 295 296 302 304 307 313 314 313 313 311 305 294 298 280 286 289 285 283 283 277 282 286 291 298 301 304 304 306 305 306 307 306 306 305 305 305 305 303 300 299 299 300 302
290 291 295 298 304 309 312 311 310 312 310 304 293 297 288 291 296 293 288 287 286 285 290 300 304 305 305 306 307 307 306 305 308 308 308 306 304 304 301 299 298 298 301 302
290 292 296 298 301 308 308 305 306 307 306 303 291 293 295 296 300 294 286 283 282 286 296 299 301 302 305 305 304 304 304 308 309 311 309 307 306 304 301 298 299 302 303 303
289 292 296 298 303 306 302 299 301 300 299 300 296 295 297 297 296 296 292 289 290 294 298 300 302 302 304 305 306 308 312 312 312 309 309 308 307 305 303 304 304 305 307 305
291 293 294 299 302 303 297 295 299 299 293 293 295 293 295 296 294 291 290 289 290 294 296 300 299 303 305 307 310 310 311 311 311 311 310 309 309 309 309 308 308 311 308 307
287 289 293 297 299 300 294 292 295 298 292 292 292 293 300 295 294 293 292 291 293 295 296 295 301 304 305 308 308 311 312 313 313 312 311 311 312 311 309 309 309 316 314 307
283 287 293 294 293 293 288 286 291 295 295 291 289 294 292 293 295 296 295 295 295 295 294 299 302 303 306 307 310 312 313 313 312 311 316 322 320 314 311 309 311 318 320 310
287 289 290 287 287 284 284 287 291 293 297 300 298 291 291 293 293 294 296 297 298 298 301 302 303 306 308 310 311 311 311 311 311 313 314 316 315 317 312 309 309 314 315 316
280 281 283 284 286 282 283 285 286 292 295 294 297 299 299 298 295 296 301 301 300 301 302 305 305 306 307 308 310 310 311 310 311 311 311 311 310 307 302 300 301 302 303 309
278 282 282 279 280 281 283 285 288 292 293 294 293 295 297 294 296 299 299 299 299 300 302 303 305 306 307 309 309 310 311 312 312 310 309 309 305 301 296 295 295 293 295 303
282 283 282 279 279 281 283 284 289 291 293 294 295 294 292 294 296 297 296 296 298 299 300 304 305 306 308 309 310 312 313 312 310 309 309 307 304 302 300 296 293 292 294 300
281 284 282 279 279 282 286 288 288 288 291 295 297 297 297 298 302 302 302 301 301 301 304 303 307 309 311 312 314 314 313 312 311 309 307 305 306 308 305 307 309 307 306 287
281 281 282 280 283 286 288 288 289 290 292 294 294 295 295 297 298 298 300 301 302 305 306 309 311 312 314 314 315 314 313 312 310 308 304 304 304 305 313 328 31 92 111 77
282 280 279 281 284 288 289 289 289 291 292 293 295 295 297 299 302 302 305 311 311 309 311 313 313 315 315 316 315 316 315 312 307 303 301 299 298 307 341 79 109 110 98 93
280 279 281 282 285 285 287 290 293 297 297 296 299 300 300 301 300 300 308 311 310 313 315 316 317 317 317 318 321 319 317 315 310 306 309 307 308 62 111 120 114 107 105 106
278 279 280 280 282 284 287 288 290 294 294 296 299 299 300 301 303 311 309 310 314 317 318 321 319 319 322 325 323 323 324 324 323 324 332 28 116 121 121 116 113 114 113 105
285 283 286 287 286 289 291 293 295 296 297 297 296 298 300 307 309 308 311 314 318 321 325 322 322 327 329 331 333 339 339 345 4 47 93 110 117 119 114 118 118 113 111 107
284 287 288 288 292 294 295 297 297 300 302 301 302 307 309 308 306 313 315 320 325 329 325 328 332 336 339 344 349 3 24 55 83 101 111 118 115 116 119 117 117 113 108 102
Height
10858 10857 10853 10850 10848 10844 10840 10837 10833 10827 10826 10825 10823 10810 10812 10812 10803 10791 10786 10783 10771 10785 10789 10785 10777 10772 10772 10767 10761 10758 10756 10756 10748 10744 10738 10732 10727 10722 10715 10708 10704 10699 10691 10686
10852 10851 10846 10842 10840 10836 10832 10827 10821 10811 10816 10808 10804 10800 10789 10792 10794 10786 10769 10766 10760 10769 10770 10767 10764 10759 10756 10754 10750 10745 10743 10742 10736 10729 10724 10719 10716 10706 10697 10692 10685 10677 10669 10661
10846 10846 10838 10836 10831 10828 10822 10822 10813 10801 10798 10796 10788 10784 10774 10769 10768 10777 10764 10755 10751 10753 10755 10753 10750 10746 10744 10742 10739 10740 10734 10730 10723 10715 10712 10708 10700 10689 10681 10674 10665 10655 10647 10639
10837 10836 10830 10827 10824 10818 10814 10810 10803 10792 10784 10778 10771 10779 10764 10761 10757 10754 10751 10744 10741 10741 10742 10740 10739 10735 10735 10734 10734 10730 10725 10718 10712 10704 10697 10691 10680 10670 10662 10652 10645 10636 10626 10613
10830 10824 10822 10815 10812 10808 10802 10800 10792 10783 10772 10764 10752 10760 10753 10749 10749 10750 10746 10739 10732 10731 10730 10732 10729 10726 10726 10726 10723 10719 10715 10711 10702 10690 10683 10672 10662 10648 10637 10630 10623 10610 10598 10584
10818 10817 10812 10804 10802 10798 10794 10785 10780 10770 10760 10752 10747 10748 10745 10739 10740 10741 10742 10736 10731 10727 10722 10719 10718 10718 10716 10712 10708 10707 10702 10694 10686 10676 10669 10658 10647 10632 10619 10611 10597 10584 10570 10554
10807 10806 10806 10795 10785 10781 10783 10775 10767 10758 10747 10743 10737 10737 10734 10731 10735 10733 10737 10734 10726 10724 10718 10713 10709 10710 10706 10701 10694 10688 10681 10677 10667 10660 10651 10641 10628 10614 10603 10592 10577 10562 10544 10530
10796 10793 10792 10792 10780 10775 10767 10764 10758 10749 10739 10729 10730 10732 10730 10727 10725 10724 10723 10721 10718 10714 10708 10705 10702 10700 10697 10692 10682 10673 10666 10655 10644 10638 10630 10618 10604 10589 10578 10561 10546 10531 10519 10508
10789 10779 10781 10778 10768 10762 10756 10748 10746 10741 10733 10724 10713 10724 10724 10721 10719 10715 10710 10711 10709 10703 10697 10694 10694 10688 10680 10673 10665 10653 10645 10636 10625 10616 10605 10590 10575 10562 10551 10536 10524 10511 10501 10490
10780 10773 10766 10767 10761 10750 10748 10739 10734 10732 10727 10719 10705 10713 10713 10713 10713 10708 10704 10697 10694 10689 10685 10682 10678 10671 10665 10656 10645 10635 10626 10617 10605 10594 10581 10567 10551 10538 10524 10512 10501 10491 10483 10473
10765 10761 10753 10752 10754 10745 10735 10730 10725 10721 10717 10714 10706 10700 10704 10703 10701 10697 10695 10692 10687 10679 10677 10669 10665 10658 10650 10642 10634 10623 10610 10598 10584 10569 10554 10538 10525 10511 10499 10490 10482 10473 10466 10456
10751 10749 10744 10739 10739 10734 10726 10722 10717 10715 10708 10702 10699 10697 10698 10699 10694 10689 10685 10681 10673 10671 10667 10657 10648 10644 10635 10623 10611 10599 10587 10573 10562 10546 10532 10512 10501 10491 10481 10473 10466 10458 10449 10441
10736 10735 10734 10726 10727 10724 10717 10711 10707 10704 10701 10694 10690 10687 10692 10689 10684 10681 10678 10671 10663 10660 10655 10645 10632 10626 10617 10603 10592 10582 10569 10558 10545 10527 10509 10494 10483 10474 10466 10458 10451 10444 10438 10433
10725 10720 10720 10718 10711 10713 10706 10704 10698 10696 10691 10686 10681 10676 10680 10675 10674 10672 10667 10659 10653 10648 10642 10630 10622 10611 10598 10588 10575 10563 10548 10534 10520 10506 10493 10479 10467 10460 10453 10447 10442 10438 10431 10426
10712 10709 10707 10703 10702 10697 10698 10693 10690 10686 10682 10679 10676 10668 10669 10667 10662 10658 10651 10646 10640 10632 10622 10616 10608 10596 10584 10569 10556 10541 10527 10514 10501 10489 10479 10468 10458 10450 10444 10440 10437 10432 10427 10424
10701 10693 10693 10689 10689 10686 10684 10681 10678 10676 10675 10666 10664 10666 10657 10654 10654 10649 10643 10634 10623 10612 10605 10597 10586 10575 10563 10550 10537 10523 10509 10497 10485 10475 10467 10460 10452 10446 10439 10435 10431 10427 10424 10420
10688 10687 10683 10677 10676 10674 10675 10672 10665 10668 10666 10659 10649 10649 10647 10644 10640 10636 10632 10615 10603 10595 10586 10577 10566 10557 10544 10532 10519 10504 10493 10481 10471 10462 10455 10450 10441 10437 10432 10427 10424 10422 10418 10416
10674 10675 10675 10671 10666 10661 10666 10660 10655 10656 10654 10650 10642 10639 10635 10627 10626 10626 10617 10604 10589 10580 10572 10560 10549 10536 10524 10512 10499 10487 10477 10467 10459 10450 10443 10437 10430 10424 10420 10417 10415 10412 10411 10411
10664 10662 10661 10660 10658 10652 10652 10652 10647 10642 10641 10636 10633 10627 10618 10609 10608 10613 10602 10588 10576 10565 10555 10544 10531 10517 10504 10492 10481 10471 10462 10454 10446 10437 10430 10422 10417 10412 10409 10406 10404 10404 10404 10405
10655 10649 10648 10647 10646 10645 10641 10639 10635 10633 10631 10625 10622 10611 10603 10595 10590 10583 10573 10563 10553 10541 10534 10521 10508 10496 10485 10474 10464 10455 10447 10439 10431 10424 10417 10411 10407 10404 10400 10398 10398 10398 10399 10400
10641 10639 10635 10631 10632 10633 10633 10624 10619 10617 10615 10615 10610 10601 10590 10583 10576 10565 10556 10548 10535 10526 10512 10501 10490 10479 10468 10458 10449 10441 10432 10424 10417 10411 10407 10404 10400 10397 10395 10395 10395 10395 10397 10399
10631 10627 10620 10621 10620 10619 10616 10609 10603 10604 10601 10596 10590 10584 10575 10565 10556 10544 10536 10528 10517 10506 10497 10487 10475 10464 10454 10444 10436 10426 10418 10411 10405 10400 10396 10394 10392 10392 10392 10394 10394 10397 10399 10401
10618 10612 10612 10610 10608 10604 10601 10595 10588 10582 10578 10574 10569 10562 10553 10546 10537 10530 10524 10514 10503 10494 10485 10474 10464 10453 10443 10433 10423 10413 10406 10401 10395 10392 10390 10388 10388 10390 10392 10394 10397 10400 10403 10406
10605 10598 10598 10599 10595 10591 10587 10582 10578 10576 10565 10561 10554 10546 10540 10531 10524 10518 10510 10501 10493 10484 10474 10465 10454 10444 10433 10423 10413 10405 10399 10393 10389 10387 10386 10385 10387 10389 10393 10398 10402 10406 10409 10412
10589 10585 10583 10580 10581 10581 10573 10568 10563 10559 10553 10549 10541 10535 10528 10522 10515 10508 10500 10493 10485 10477 10468 10457 10447 10436 10426 10416 10407 10400 10394 10389 10387 10386 10386 10387 10390 10394 10399 10405 10410 10414 10417 10419
10575 10574 10574 10567 10565 10565 10559 10553 10549 10544 10540 10532 10529 10525 10518 10512 10506 10500 10493 10487 10480 10472 10462 10452 10441 10431 10421 10413 10406 10400 10394 10391 10390 10390 10391 10394 10398 10404 10410 10415 10419 10423 10427 10429